Simultaneous Nadir Overpasses (SNOs) Predictions

Prediction of SNOs between NOAA-19 and TERRA Satellite Orbit:

Table of predicted SNOs for the next 14.0 days since TLE Epoch: 1/30/2015
Index Date (NOAA-19) Time (NOAA-19) Lat,Lon (NOAA-19) SZA (NOAA-19 ) Date (TERRA) Time (TERRA) Lat,Lon (TERRA) SZA (TERRA ) Distance(km) Time Diff (sec)
1 01/30/2015 10:02:20 71.50, 32.19 89.09 01/30/2015 10:02:39 71.48, 32.23 89.07 2.35 19
2 01/30/2015 10:53:13 -71.36,-160.29 91.07 01/30/2015 10:52:09 -71.37,-160.33 91.06 1.79 64
3 02/01/2015 14:45:53 71.54, -38.74 88.52 02/01/2015 14:46:54 71.56, -38.72 88.53 2.39 61
4 02/01/2015 15:36:47 -71.46, 128.67 91.58 02/01/2015 15:36:24 -71.45, 128.73 91.60 2.88 23
5 02/03/2015 20:20:19 -71.52, 57.70 92.15 02/03/2015 20:20:38 -71.51, 57.77 92.17 2.74 19
6 02/03/2015 21:11:20 71.18,-134.45 87.50 02/03/2015 21:10:08 71.24,-135.02 87.56 21.58 72
7 02/06/2015 01:03:51 -71.54, -13.18 92.79 02/06/2015 01:04:53 -71.56, -13.22 92.78 2.30 62
8 02/06/2015 01:54:57 71.45, 154.21 87.10 02/06/2015 01:54:20 71.45, 154.25 87.11 1.47 37
9 02/08/2015 06:38:29 71.47, 83.32 86.44 02/08/2015 06:38:35 71.49, 83.24 86.46 3.56 6
10 02/08/2015 07:29:19 -71.21,-108.94 93.83 02/08/2015 07:28:07 -71.27,-109.48 93.77 20.35 72
11 02/10/2015 11:22:02 71.55, 12.32 85.83 02/10/2015 11:22:49 71.56, 12.29 85.83 1.14 47
12 02/10/2015 12:12:55 -71.45, 179.78 94.29 02/10/2015 12:12:19 -71.45, 179.75 94.29 1.00 36
13 02/12/2015 16:05:46 72.21, -59.79 85.77 02/12/2015 16:06:54 72.10, -57.84 85.65 67.42 68
14 02/12/2015 16:56:27 -71.49, 108.85 94.98 02/12/2015 16:56:33 -71.51, 108.78 94.96 3.24 6




NCC Satellite Simultaneous Nadir Overpasses (SNOs) Prediction Service
